CW7186 Weather Reports


time (UTC)temp
C
wind
direction
speed
KPH
gust
KPH
rain 1hr
cm
rain 24hr
cm
rain mn
cm
humidity
%
barometer
mb
20260505101550 13 0 0.0 1.6 0.00 0.00 0.00 80 1010.0
20260505100055 13 0 0.0 1.6 0.00 0.00 0.00 82 1009.9
20260505094554 12 0 0.0 0.0 0.00 0.00 0.00 84 1010.0
20260505093059 12 0 0.0 0.0 0.00 0.00 0.00 82 1010.1
20260505091553 13 0 0.0 0.0 0.00 0.00 0.00 80 1009.9
20260505090054 13 0 0.0 0.0 0.00 0.00 0.00 79 1009.9
20260505084554 13 0 0.0 1.6 0.00 0.00 0.00 78 1009.9
20260505083055 14 0 0.0 3.2 0.00 0.00 0.00 77 1010.0
20260505081554 14 0 0.0 4.8 0.00 0.00 0.00 76 1009.9
20260505080103 14 0 0.0 6.4 0.00 0.00 0.00 76 1009.9
20260505074555 14 0 0.0 6.4 0.00 0.00 0.00 77 1009.9
20260505073101 13 0 0.0 6.4 0.00 0.00 0.00 77 1009.8
20260505071555 13 193 0.0 6.4 0.00 0.00 0.00 76 1009.6
20260505070052 14 205 0.0 6.4 0.00 0.00 0.00 75 1009.6
20260505064600 14 0 1.6 6.4 0.00 0.00 0.00 75 1009.5
20260505063101 14 224 1.6 8.0 0.00 0.00 0.00 74 1009.7
20260505061559 15 207 1.6 12.9 0.00 0.00 0.00 73 1009.7
20260505060100 15 192 1.6 8.0 0.00 0.00 0.00 71 1009.8
20260505054559 15 216 3.2 11.3 0.00 0.00 0.00 70 1009.7
20260505053114 15 204 1.6 16.1 0.00 0.00 0.00 69 1009.7
20260505051553 15 216 4.8 16.1 0.00 0.00 0.00 68 1009.7
20260505041555 16 202 8.0 16.1 0.00 0.00 0.00 64 1010.0
20260505040057 16 190 4.8 14.5 0.00 0.00 0.00 63 1010.0
20260505034613 16 191 4.8 16.1 0.00 0.00 0.00 63 1010.0
20260505033057 16 182 6.4 19.3 0.00 0.00 0.00 63 1010.0
20260505031555 16 221 4.8 17.7 0.00 0.00 0.00 62 1010.1
20260505030059 16 208 3.2 16.1 0.00 0.00 0.00 62 1010.0
20260505024554 16 190 4.8 16.1 0.00 0.00 0.00 62 1010.1
20260505023052 16 203 3.2 11.3 0.00 0.00 0.00 61 1010.1
20260505021554 16 0 4.8 14.5 0.00 0.00 0.00 59 1010.2
20260505020058 16 194 1.6 11.3 0.00 0.00 0.00 58 1010.3
20260505014554 17 202 4.8 11.3 0.00 0.00 0.00 56 1010.3
20260505013052 17 207 1.6 11.3 0.00 0.00 0.00 53 1010.1
20260505011608 17 198 3.2 14.5 0.00 0.00 0.00 51 1010.0
20260505010058 17 210 3.2 8.0 0.00 0.00 0.00 47 1009.8
20260505004605 18 209 0.0 4.8 0.00 0.00 0.00 45 1009.7
20260505003057 18 0 0.0 3.2 0.00 0.00 0.00 43 1009.5
20260505001613 19 0 0.0 8.0 0.00 0.00 0.00 41 1009.4
20260505000106 20 0 1.6 9.7 0.00 0.00 0.00 39 1009.2
20260504234557 21 232 1.6 6.4 0.00 0.00 0.00 38 1009.2
20260504233110 21 236 3.2 16.1 0.00 0.00 0.00 36 1009.0
20260504231553 21 273 3.2 20.9 0.00 0.00 0.00 35 1009.0
20260504230052 22 0 4.8 22.5 0.00 0.00 0.00 34 1008.9
20260504224553 22 0 6.4 19.3 0.00 0.00 0.00 34 1008.9
20260504223054 22 265 1.6 22.5 0.00 0.00 0.00 34 1008.9
20260504221553 22 0 3.2 14.5 0.00 0.00 0.00 33 1008.9
20260504220052 22 242 8.0 22.5 0.00 0.00 0.00 33 1009.0
20260504214555 23 324 4.8 22.5 0.00 0.00 0.00 31 1009.0
20260504213054 23 257 4.8 20.9 0.00 0.00 0.00 31 1009.1
20260504211554 23 250 8.0 20.9 0.00 0.00 0.00 32 1009.1
20260504210059 23 233 4.8 19.3 0.00 0.00 0.00 31 1009.1
20260504204557 23 321 8.0 22.5 0.00 0.00 0.00 31 1009.1
20260504203057 23 340 4.8 17.7 0.00 0.00 0.00 31 1009.1
20260504201555 22 272 9.7 20.9 0.00 0.00 0.00 33 1009.0
20260504200100 23 196 8.0 25.7 0.00 0.00 0.00 30 1009.1
20260504194601 23 199 3.2 22.5 0.00 0.00 0.00 32 1009.2
20260504193056 22 260 9.7 19.3 0.00 0.00 0.00 31 1009.4
20260504191612 22 0 6.4 25.7 0.00 0.00 0.00 32 1009.6
20260504190051 22 294 8.0 24.1 0.00 0.00 0.00 32 1009.8
20260504184552 22 286 9.7 24.1 0.00 0.00 0.00 31 1010.1
20260504183053 22 243 12.9 30.6 0.00 0.00 0.00 31 1010.3
20260504181600 22 185 4.8 22.5 0.00 0.00 0.00 32 1010.6
20260504180052 22 245 6.4 19.3 0.00 0.00 0.00 33 1010.8
20260504174554 21 277 8.0 22.5 0.00 0.00 0.00 34 1011.1
20260504173053 21 296 9.7 24.1 0.00 0.00 0.00 34 1011.2
20260504171555 21 300 6.4 24.1 0.00 0.00 0.00 34 1011.4